EW5603 Weather Reports


time (UTC)temp
C
wind
direction
speed
KPH
gust
KPH
rain 1hr
cm
rain 24hr
cm
rain mn
cm
humidity
%
barometer
mb
20260504175521 20 248 8.0 22.5 0.00 0.00 0.00 42 1018.6
20260504175420 20 270 9.7 19.3 0.00 0.00 0.00 38 1018.6
20260504175321 20 180 8.0 14.5 0.00 0.00 0.00 40 1018.7
20260504175222 20 270 11.3 20.9 0.00 0.00 0.00 37 1018.7
20260504175141 20 270 6.4 14.5 0.00 0.00 0.00 40 1018.7
20260504175021 20 270 8.0 19.3 0.00 0.00 0.00 44 1018.8
20260504174922 20 180 6.4 14.5 0.00 0.00 0.00 38 1018.7
20260504174821 20 203 8.0 17.7 0.00 0.00 0.00 40 1018.7
20260504174722 20 203 6.4 11.3 0.00 0.00 0.00 43 1018.8
20260504174621 20 203 8.0 17.7 0.00 0.00 0.00 38 1018.8
20260504174522 20 203 9.7 14.5 0.00 0.00 0.00 40 1018.8
20260504174421 20 248 6.4 19.3 0.00 0.00 0.00 41 1018.7
20260504174321 20 270 9.7 16.1 0.00 0.00 0.00 43 1018.8
20260504174221 20 180 3.2 6.4 0.00 0.00 0.00 40 1018.8
20260504174121 19 203 4.8 8.0 0.00 0.00 0.00 39 1018.8
20260504174021 19 203 4.8 8.0 0.00 0.00 0.00 41 1018.9
20260504173921 19 248 8.0 16.1 0.00 0.00 0.00 39 1018.8
20260504173821 19 270 8.0 14.5 0.00 0.00 0.00 42 1018.9
20260504173721 19 203 8.0 14.5 0.00 0.00 0.00 38 1018.8
20260504173621 19 225 8.0 11.3 0.00 0.00 0.00 40 1018.8
20260504173541 19 180 6.4 11.3 0.00 0.00 0.00 39 1018.9
20260504173421 19 270 8.0 16.1 0.00 0.00 0.00 40 1018.8
20260504173321 19 203 8.0 12.9 0.00 0.00 0.00 40 1018.8
20260504173242 19 225 11.3 16.1 0.00 0.00 0.00 39 1018.8
20260504173141 19 203 12.9 20.9 0.00 0.00 0.00 38 1018.9
20260504173041 19 270 12.9 20.9 0.00 0.00 0.00 40 1018.9
20260504172921 19 203 6.4 11.3 0.00 0.00 0.00 39 1018.8
20260504172821 19 248 6.4 14.5 0.00 0.00 0.00 40 1018.9
20260504172721 19 180 8.0 12.9 0.00 0.00 0.00 37 1018.9
20260504172621 19 203 12.9 30.6 0.00 0.00 0.00 38 1018.9
20260504172521 19 293 14.5 30.6 0.00 0.00 0.00 38 1018.9
20260504172421 19 180 12.9 17.7 0.00 0.00 0.00 36 1018.9
20260504172322 19 203 8.0 14.5 0.00 0.00 0.00 38 1018.9
20260504172221 19 248 6.4 12.9 0.00 0.00 0.00 43 1019.0
20260504172141 19 225 3.2 6.4 0.00 0.00 0.00 42 1018.9
20260504172021 19 248 6.4 12.9 0.00 0.00 0.00 39 1019.1
20260504171921 19 180 11.3 25.7 0.00 0.00 0.00 38 1018.9
20260504171822 19 203 9.7 14.5 0.00 0.00 0.00 38 1019.0
20260504171721 19 270 6.4 11.3 0.00 0.00 0.00 40 1019.0
20260504171621 19 225 4.8 8.0 0.00 0.00 0.00 40 1019.0
20260504171521 19 180 9.7 14.5 0.00 0.00 0.00 39 1019.0
20260504171421 19 225 11.3 25.7 0.00 0.00 0.00 37 1019.0
20260504171401 19 225 8.0 22.5 0.00 0.00 0.00 39 1019.0
20260504171221 19 180 6.4 12.9 0.00 0.00 0.00 41 1018.9
20260504171122 19 293 8.0 20.9 0.00 0.00 0.00 38 1019.1
20260504171022 19 225 8.0 14.5 0.00 0.00 0.00 37 1019.1
20260504170921 19 270 8.0 12.9 0.00 0.00 0.00 38 1019.0
20260504170841 19 180 11.3 16.1 0.00 0.00 0.00 38 1019.0
20260504170741 19 270 9.7 19.3 0.00 0.00 0.00 40 1019.1
20260504170621 19 203 8.0 14.5 0.00 0.00 0.00 41 1019.1
20260504170521 19 270 8.0 16.1 0.00 0.00 0.00 42 1019.0
20260504170442 19 270 11.3 27.4 0.00 0.00 0.00 39 1019.0
20260504170321 19 270 11.3 22.5 0.00 0.00 0.00 37 1019.0
20260504170221 19 248 12.9 27.4 0.00 0.00 0.00 38 1019.0
20260504170123 19 270 11.3 16.1 0.00 0.00 0.00 42 1019.1
20260504160441 18 203 3.2 6.4 0.00 0.00 0.00 43 1019.8
20260504160321 18 180 6.4 11.3 0.00 0.00 0.00 40 1019.8
20260504160221 18 180 11.3 20.9 0.00 0.00 0.00 40 1019.8
20260504160121 18 248 4.8 11.3 0.00 0.00 0.00 42 1019.8
20260504151123 17 203 6.4 14.5 0.00 0.00 0.00 45 1020.5
20260504151040 17 203 3.2 6.4 0.00 0.00 0.00 48 1020.5
20260504150921 17 203 3.2 6.4 0.00 0.00 0.00 49 1020.5
20260504150822 17 270 8.0 16.1 0.00 0.00 0.00 46 1020.6
20260504150721 17 225 9.7 19.3 0.00 0.00 0.00 46 1020.6
20260504150622 17 180 9.7 12.9 0.00 0.00 0.00 44 1020.5
20260504150521 17 203 4.8 11.3 0.00 0.00 0.00 47 1020.6
20260504150441 17 203 6.4 14.5 0.00 0.00 0.00 44 1020.6
20260504150321 17 203 8.0 12.9 0.00 0.00 0.00 44 1020.5
20260504150220 17 180 6.4 8.0 0.00 0.00 0.00 47 1020.5
20260504150120 17 203 4.8 24.1 0.00 0.00 0.00 49 1020.6
20260504141322 16 180 4.8 11.3 0.00 0.00 0.00 48 1020.7
20260504141304 16 203 3.2 9.7 0.00 0.00 0.00 51 1020.7
20260504141123 16 203 3.2 4.8 0.00 0.00 0.00 48 1020.8
20260504141022 16 225 3.2 6.4 0.00 0.00 0.00 48 1020.8
20260504140922 16 225 4.8 8.0 0.00 0.00 0.00 47 1020.8
20260504140841 16 180 6.4 11.3 0.00 0.00 0.00 51 1020.8
20260504140721 16 248 3.2 6.4 0.00 0.00 0.00 46 1020.8
20260504140621 16 203 8.0 12.9 0.00 0.00 0.00 49 1020.9
20260504140601 16 248 4.8 8.0 0.00 0.00 0.00 51 1020.9
20260504140320 16 158 3.2 8.0 0.00 0.00 0.00 49 1020.9
20260504140222 16 248 8.0 14.5 0.00 0.00 0.00 49 1020.9
20260504140201 16 180 4.8 8.0 0.00 0.00 0.00 50 1020.9
20260504130822 15 203 8.0 14.5 0.00 0.00 0.00 48 1021.2
20260504130723 15 270 9.7 11.3 0.00 0.00 0.00 51 1021.2
20260504130622 15 270 6.4 12.9 0.00 0.00 0.00 50 1021.3
20260504130523 15 270 3.2 6.4 0.00 0.00 0.00 50 1021.3
20260504130420 15 270 6.4 14.5 0.00 0.00 0.00 49 1021.3
20260504130341 15 248 4.8 11.3 0.00 0.00 0.00 49 1021.3
20260504130242 15 180 3.2 6.4 0.00 0.00 0.00 50 1021.3
20260504130143 15 248 3.2 9.7 0.00 0.00 0.00 50 1021.3
20260504120222 12 248 4.8 9.7 0.00 0.00 0.00 57 1021.6
20260504120123 12 225 3.2 12.9 0.00 0.00 0.00 58 1021.6
20260504110622 8 0.0 3.2 0.00 0.00 0.00 68 1021.6
20260504110543 7 270 1.6 3.2 0.00 0.00 0.00 69 1021.5
20260504110422 7 0.0 1.6 0.00 0.00 0.00 69 1021.4
20260504110322 7 270 1.6 3.2 0.00 0.00 0.00 68 1021.4
20260504110222 7 270 1.6 3.2 0.00 0.00 0.00 68 1021.4
20260504110142 7 0.0 0.0 0.00 0.00 0.00 68 1021.3
20260504100522 4 0.0 0.0 0.00 0.00 0.00 79 1021.1
20260504100424 4 0.0 0.0 0.00 0.00 0.00 79 1021.1
20260504100323 4 0.0 0.0 0.00 0.00 0.00 79 1021.1
20260504100244 4 0.0 0.0 0.00 0.00 0.00 79 1021.1
20260504100123 4 0.0 0.0 0.00 0.00 0.00 79 1021.1
20260504090121 4 0.0 0.0 0.00 0.00 0.00 80 1020.9
20260504081925 3 0.0 0.0 0.00 0.00 0.00 83 1020.5
20260504081843 3 0.0 0.0 0.00 0.00 0.00 82 1020.5
20260504081723 3 0.0 0.0 0.00 0.00 0.00 82 1020.5
20260504081624 3 0.0 0.0 0.00 0.00 0.00 82 1020.5
20260504081523 3 0.0 0.0 0.00 0.00 0.00 81 1020.5
20260504081422 3 0.0 0.0 0.00 0.00 0.00 80 1020.5
20260504081322 3 0.0 0.0 0.00 0.00 0.00 79 1020.4
20260504081221 3 0.0 0.0 0.00 0.00 0.00 79 1020.5
20260504081142 3 0.0 0.0 0.00 0.00 0.00 79 1020.5
20260504081021 3 0.0 0.0 0.00 0.00 0.00 78 1020.5
20260504080921 3 0.0 0.0 0.00 0.00 0.00 78 1020.5
20260504080821 4 0.0 0.0 0.00 0.00 0.00 78 1020.5
20260504080721 4 0.0 0.0 0.00 0.00 0.00 78 1020.5
20260504080621 4 0.0 0.0 0.00 0.00 0.00 78 1020.5
20260504080522 4 0.0 0.0 0.00 0.00 0.00 78 1020.4
20260504080421 4 0.0 0.0 0.00 0.00 0.00 78 1020.4
20260504080322 4 0.0 0.0 0.00 0.00 0.00 78 1020.5
20260504080222 4 0.0 0.0 0.00 0.00 0.00 78 1020.4
20260504080122 4 0.0 0.0 0.00 0.00 0.00 78 1020.4
20260504070321 3 0.0 0.0 0.00 0.00 0.00 83 1020.2
20260504070222 3 0.0 0.0 0.00 0.00 0.00 83 1020.2
20260504070121 3 0.0 0.0 0.00 0.00 0.00 83 1020.1
20260504060221 3 0.0 0.0 0.00 0.00 0.00 80 1020.1
20260504060121 3 0.0 0.0 0.00 0.00 0.00 80 1020.0
20260504050741 4 0.0 0.0 0.00 0.00 0.00 76 1020.0
20260504050621 4 0.0 0.0 0.00 0.00 0.00 75 1020.0
20260504050524 4 0.0 0.0 0.00 0.00 0.00 76 1020.0
20260504050421 4 0.0 0.0 0.00 0.00 0.00 76 1020.0
20260504050342 5 0.0 0.0 0.00 0.00 0.00 76 1019.9
20260504050121 5 0.0 0.0 0.00 0.00 0.00 76 1020.0
20260504050021 5 0.0 0.0 0.00 0.00 0.00 77 1020.0
20260504045921 5 0.0 0.0 0.00 0.00 0.00 77 1020.0
20260504045822 5 0.0 0.0 0.00 0.00 0.00 77 1020.0
20260504045721 5 0.0 0.0 0.00 0.00 0.00 77 1020.0
20260504045641 5 0.0 0.0 0.00 0.00 0.00 78 1020.0
20260504045521 5 0.0 0.0 0.00 0.00 0.00 77 1020.0
20260504045421 5 0.0 0.0 0.00 0.00 0.00 77 1020.0
20260504045321 5 0.0 0.0 0.00 0.00 0.00 76 1020.0
20260504045301 5 0.0 0.0 0.00 0.00 0.00 76 1020.0
20260504045121 5 0.0 0.0 0.00 0.00 0.00 76 1020.0
20260504045023 5 0.0 0.0 0.00 0.00 0.00 76 1020.0
20260504044923 5 0.0 0.0 0.00 0.00 0.00 76 1020.0
20260504044822 5 0.0 0.0 0.00 0.00 0.00 76 1020.0
20260504044723 5 0.0 0.0 0.00 0.00 0.00 76 1019.9
20260504044622 5 0.0 0.0 0.00 0.00 0.00 75 1020.0
20260504044521 5 0.0 0.0 0.00 0.00 0.00 76 1019.9
20260504044422 5 0.0 0.0 0.00 0.00 0.00 76 1019.9
20260504044321 5 0.0 0.0 0.00 0.00 0.00 76 1020.0
20260504044221 5 0.0 0.0 0.00 0.00 0.00 76 1019.9
20260504044141 5 0.0 0.0 0.00 0.00 0.00 75 1019.8
20260504044022 5 0.0 0.0 0.00 0.00 0.00 75 1019.9
20260504043936 5 0.0 0.0 0.00 0.00 0.00 76 1019.9
20260504043823 5 0.0 0.0 0.00 0.00 0.00 76 1020.0
20260504043721 5 0.0 0.0 0.00 0.00 0.00 76 1020.0
20260504043621 5 0.0 0.0 0.00 0.00 0.00 76 1020.0
20260504043521 5 0.0 0.0 0.00 0.00 0.00 76 1020.0
20260504043441 5 0.0 0.0 0.00 0.00 0.00 76 1019.9
20260504043321 5 0.0 0.0 0.00 0.00 0.00 76 1019.9
20260504043221 5 0.0 0.0 0.00 0.00 0.00 76 1020.0
20260504043121 5 0.0 0.0 0.00 0.00 0.00 76 1019.9
20260504043021 5 0.0 0.0 0.00 0.00 0.00 75 1020.0
20260504042921 5 0.0 1.6 0.00 0.00 0.00 75 1019.9
20260504042841 5 0.0 0.0 0.00 0.00 0.00 74 1020.0
20260504042721 5 0.0 1.6 0.00 0.00 0.00 74 1019.9
20260504042641 5 0.0 0.0 0.00 0.00 0.00 74 1020.0
20260504042521 5 0.0 0.0 0.00 0.00 0.00 74 1020.0
20260504042421 5 0.0 0.0 0.00 0.00 0.00 74 1020.0
20260504042321 5 0.0 0.0 0.00 0.00 0.00 74 1020.0
20260504042221 5 0.0 0.0 0.00 0.00 0.00 74 1020.0
20260504042141 5 0.0 0.0 0.00 0.00 0.00 74 1020.0
20260504042021 5 0.0 0.0 0.00 0.00 0.00 74 1019.9
20260504041941 5 0.0 0.0 0.00 0.00 0.00 73 1020.0
20260504041822 5 0.0 0.0 0.00 0.00 0.00 73 1019.9
20260504041721 5 0.0 0.0 0.00 0.00 0.00 73 1019.9
20260504041641 5 0.0 0.0 0.00 0.00 0.00 73 1019.9
20260504041521 5 0.0 0.0 0.00 0.00 0.00 73 1019.9
20260504041421 5 0.0 0.0 0.00 0.00 0.00 73 1020.0
20260504041321 5 0.0 0.0 0.00 0.00 0.00 73 1020.0
20260504041221 5 0.0 0.0 0.00 0.00 0.00 73 1019.9
20260504041121 5 0.0 0.0 0.00 0.00 0.00 73 1019.9
20260504041021 5 0.0 0.0 0.00 0.00 0.00 73 1019.9
20260504040923 5 0.0 0.0 0.00 0.00 0.00 72 1019.9
20260504040823 5 0.0 0.0 0.00 0.00 0.00 72 1019.9
20260504040723 5 0.0 0.0 0.00 0.00 0.00 71 1020.0
20260504040624 5 0.0 0.0 0.00 0.00 0.00 72 1020.0
20260504040522 5 0.0 0.0 0.00 0.00 0.00 71 1019.9
20260504040422 5 0.0 0.0 0.00 0.00 0.00 71 1019.9
20260504040343 5 0.0 0.0 0.00 0.00 0.00 71 1019.9
20260504040221 5 0.0 0.0 0.00 0.00 0.00 70 1019.9
20260504040122 5 0.0 0.0 0.00 0.00 0.00 70 1019.9
20260504040020 5 0.0 0.0 0.00 0.00 0.00 70 1019.9
20260504035921 5 0.0 0.0 0.00 0.00 0.00 70 1019.8
20260504035821 5 0.0 0.0 0.00 0.00 0.00 70 1019.8
20260504035721 5 0.0 0.0 0.00 0.00 0.00 69 1019.8
20260504035621 5 0.0 0.0 0.00 0.00 0.00 69 1019.8
20260504035521 5 0.0 0.0 0.00 0.00 0.00 69 1019.8
20260504035441 5 0.0 0.0 0.00 0.00 0.00 69 1019.8
20260504035323 5 0.0 0.0 0.00 0.00 0.00 69 1019.8
20260504035223 5 0.0 0.0 0.00 0.00 0.00 69 1019.8
20260504035141 5 0.0 0.0 0.00 0.00 0.00 69 1019.8
20260504035021 5 0.0 0.0 0.00 0.00 0.00 69 1019.8
20260504034920 5 0.0 0.0 0.00 0.00 0.00 69 1019.8
20260504034820 5 0.0 0.0 0.00 0.00 0.00 69 1019.8
20260504034721 5 0.0 0.0 0.00 0.00 0.00 69 1019.8
20260504034642 5 0.0 0.0 0.00 0.00 0.00 69 1019.8
20260504034601 5 0.0 0.0 0.00 0.00 0.00 69 1019.8
20260504034422 5 0.0 0.0 0.00 0.00 0.00 69 1019.8
20260504034341 5 0.0 0.0 0.00 0.00 0.00 69 1019.8
20260504034221 6 0.0 0.0 0.00 0.00 0.00 69 1019.8
20260504034121 6 0.0 0.0 0.00 0.00 0.00 69 1019.8
20260504034021 6 0.0 0.0 0.00 0.00 0.00 69 1019.8
20260504033921 6 0.0 0.0 0.00 0.00 0.00 70 1019.8
20260504033821 6 0.0 0.0 0.00 0.00 0.00 70 1019.8
20260504033721 6 0.0 0.0 0.00 0.00 0.00 70 1019.8
20260504033621 6 0.0 0.0 0.00 0.00 0.00 70 1019.8
20260504033520 6 0.0 0.0 0.00 0.00 0.00 70 1019.7
20260504033423 6 0.0 0.0 0.00 0.00 0.00 71 1019.8
20260504033321 6 0.0 0.0 0.00 0.00 0.00 71 1019.8
20260504033221 6 0.0 0.0 0.00 0.00 0.00 71 1019.7
20260504033121 6 0.0 0.0 0.00 0.00 0.00 71 1019.7
20260504033021 6 0.0 0.0 0.00 0.00 0.00 71 1019.7
20260504032921 6 0.0 0.0 0.00 0.00 0.00 71 1019.7
20260504032842 6 0.0 0.0 0.00 0.00 0.00 71 1019.6
20260504032720 6 0.0 0.0 0.00 0.00 0.00 70 1019.7
20260504032621 6 0.0 0.0 0.00 0.00 0.00 70 1019.7
20260504032520 6 0.0 0.0 0.00 0.00 0.00 70 1019.6
20260504032421 6 0.0 0.0 0.00 0.00 0.00 69 1019.7
20260504032321 6 0.0 0.0 0.00 0.00 0.00 69 1019.7
20260504032221 6 0.0 0.0 0.00 0.00 0.00 68 1019.6
20260504032141 6 0.0 0.0 0.00 0.00 0.00 68 1019.6
20260504032021 6 0.0 0.0 0.00 0.00 0.00 67 1019.6
20260504031921 6 0.0 0.0 0.00 0.00 0.00 66 1019.6
20260504031821 6 0.0 0.0 0.00 0.00 0.00 66 1019.6
20260504031741 6 0.0 0.0 0.00 0.00 0.00 66 1019.6
20260504031621 6 0.0 0.0 0.00 0.00 0.00 66 1019.6
20260504031541 6 0.0 0.0 0.00 0.00 0.00 66 1019.6
20260504031441 6 0.0 0.0 0.00 0.00 0.00 66 1019.6
20260504031341 6 0.0 0.0 0.00 0.00 0.00 66 1019.6
20260504031222 6 0.0 0.0 0.00 0.00 0.00 66 1019.7
20260504031121 6 0.0 0.0 0.00 0.00 0.00 66 1019.6
20260504031021 6 0.0 0.0 0.00 0.00 0.00 65 1019.6
20260504030921 6 0.0 0.0 0.00 0.00 0.00 65 1019.6
20260504030842 6 0.0 0.0 0.00 0.00 0.00 64 1019.7
20260504030721 6 0.0 0.0 0.00 0.00 0.00 64 1019.6
20260504030621 6 0.0 0.0 0.00 0.00 0.00 64 1019.6
20260504030522 6 0.0 0.0 0.00 0.00 0.00 65 1019.6
20260504030423 6 0.0 0.0 0.00 0.00 0.00 64 1019.6
20260504030324 6 0.0 0.0 0.00 0.00 0.00 65 1019.6
20260504030222 6 0.0 0.0 0.00 0.00 0.00 64 1019.6
20260504030143 6 0.0 0.0 0.00 0.00 0.00 65 1019.6
20260504030022 6 0.0 0.0 0.00 0.00 0.00 65 1019.6
20260504025921 6 0.0 0.0 0.00 0.00 0.00 65 1019.6
20260504025821 6 0.0 0.0 0.00 0.00 0.00 64 1019.6
20260504025721 6 0.0 0.0 0.00 0.00 0.00 64 1019.6
20260504025621 6 0.0 0.0 0.00 0.00 0.00 64 1019.6
20260504025602 6 0.0 0.0 0.00 0.00 0.00 64 1019.6
20260504025421 6 0.0 0.0 0.00 0.00 0.00 64 1019.6
20260504025321 6 0.0 0.0 0.00 0.00 0.00 66 1019.6
20260504025221 6 0.0 0.0 0.00 0.00 0.00 66 1019.6
20260504025121 6 0.0 0.0 0.00 0.00 0.00 66 1019.6
20260504025021 6 0.0 0.0 0.00 0.00 0.00 65 1019.7
20260504024921 6 0.0 0.0 0.00 0.00 0.00 64 1019.7
20260504024822 6 0.0 0.0 0.00 0.00 0.00 64 1019.6
20260504024721 6 0.0 0.0 0.00 0.00 0.00 64 1019.7
20260504024621 6 0.0 0.0 0.00 0.00 0.00 63 1019.7
20260504024521 6 0.0 0.0 0.00 0.00 0.00 63 1019.7
20260504024420 6 0.0 0.0 0.00 0.00 0.00 65 1019.6
20260504024341 6 0.0 0.0 0.00 0.00 0.00 65 1019.6
20260504024221 7 0.0 0.0 0.00 0.00 0.00 65 1019.7
20260504024121 7 0.0 0.0 0.00 0.00 0.00 65 1019.6
20260504024023 7 0.0 0.0 0.00 0.00 0.00 65 1019.7
20260504023921 7 0.0 0.0 0.00 0.00 0.00 65 1019.7
20260504023821 7 0.0 0.0 0.00 0.00 0.00 65 1019.7
20260504023741 7 0.0 0.0 0.00 0.00 0.00 65 1019.7
20260504023622 7 0.0 0.0 0.00 0.00 0.00 64 1019.7
20260504023521 7 0.0 0.0 0.00 0.00 0.00 65 1019.7
20260504023441 7 0.0 0.0 0.00 0.00 0.00 65 1019.8
20260504023321 7 0.0 0.0 0.00 0.00 0.00 65 1019.7
20260504023221 7 0.0 0.0 0.00 0.00 0.00 65 1019.7
20260504023121 7 0.0 0.0 0.00 0.00 0.00 64 1019.7
20260504023021 7 0.0 0.0 0.00 0.00 0.00 64 1019.7
20260504022920 7 0.0 0.0 0.00 0.00 0.00 63 1019.7
20260504022820 7 0.0 0.0 0.00 0.00 0.00 63 1019.7
20260504022721 7 0.0 0.0 0.00 0.00 0.00 63 1019.7
20260504022621 7 0.0 0.0 0.00 0.00 0.00 62 1019.7
20260504022521 7 0.0 0.0 0.00 0.00 0.00 62 1019.7
20260504022421 7 0.0 0.0 0.00 0.00 0.00 62 1019.7
20260504022321 7 0.0 0.0 0.00 0.00 0.00 62 1019.7
20260504022221 7 0.0 0.0 0.00 0.00 0.00 62 1019.7
20260504022121 7 0.0 0.0 0.00 0.00 0.00 62 1019.7
20260504022043 7 0.0 0.0 0.00 0.00 0.00 61 1019.7
20260504021920 7 0.0 0.0 0.00 0.00 0.00 61 1019.7
20260504021842 7 0.0 0.0 0.00 0.00 0.00 62 1019.7
20260504021723 7 0.0 0.0 0.00 0.00 0.00 62 1019.7
20260504021623 7 0.0 0.0 0.00 0.00 0.00 62 1019.7
20260504021523 7 0.0 0.0 0.00 0.00 0.00 62 1019.7
20260504021421 7 0.0 0.0 0.00 0.00 0.00 62 1019.7
20260504021322 7 0.0 0.0 0.00 0.00 0.00 62 1019.8
20260504021241 7 0.0 0.0 0.00 0.00 0.00 62 1019.7
20260504021121 7 0.0 0.0 0.00 0.00 0.00 61 1019.7
20260504021020 7 0.0 0.0 0.00 0.00 0.00 61 1019.7
20260504020922 7 0.0 0.0 0.00 0.00 0.00 60 1019.7
20260504020821 7 0.0 0.0 0.00 0.00 0.00 60 1019.7
20260504020721 7 0.0 0.0 0.00 0.00 0.00 59 1019.7
20260504020621 8 0.0 0.0 0.00 0.00 0.00 58 1019.7
20260504020521 8 0.0 0.0 0.00 0.00 0.00 57 1019.7
20260504020421 8 0.0 0.0 0.00 0.00 0.00 57 1019.7
20260504020320 8 0.0 0.0 0.00 0.00 0.00 58 1019.7
20260504020222 8 0.0 0.0 0.00 0.00 0.00 58 1019.7
20260504020143 8 0.0 0.0 0.00 0.00 0.00 58 1019.7
20260504020023 8 0.0 0.0 0.00 0.00 0.00 56 1019.7
20260504015924 8 0.0 0.0 0.00 0.00 0.00 55 1019.7
20260504015821 8 0.0 0.0 0.00 0.00 0.00 56 1019.6
20260504015721 8 0.0 0.0 0.00 0.00 0.00 56 1019.6
20260504015621 8 0.0 0.0 0.00 0.00 0.00 56 1019.6
20260504015521 8 0.0 0.0 0.00 0.00 0.00 56 1019.6
20260504015421 8 0.0 0.0 0.00 0.00 0.00 56 1019.6
20260504015321 8 0.0 0.0 0.00 0.00 0.00 56 1019.6
20260504015242 8 0.0 0.0 0.00 0.00 0.00 56 1019.6
20260504015120 8 0.0 0.0 0.00 0.00 0.00 56 1019.5
20260504015023 8 0.0 0.0 0.00 0.00 0.00 56 1019.6
20260504014923 8 0.0 0.0 0.00 0.00 0.00 55 1019.5
20260504014822 8 0.0 0.0 0.00 0.00 0.00 55 1019.6
20260504014722 8 0.0 0.0 0.00 0.00 0.00 54 1019.5
20260504014622 8 0.0 0.0 0.00 0.00 0.00 54 1019.5
20260504014520 8 0.0 0.0 0.00 0.00 0.00 55 1019.5
20260504014422 8 0.0 0.0 0.00 0.00 0.00 55 1019.5
20260504014323 8 0.0 0.0 0.00 0.00 0.00 56 1019.6
20260504014223 8 0.0 0.0 0.00 0.00 0.00 57 1019.6
20260504014122 8 0.0 0.0 0.00 0.00 0.00 57 1019.5
20260504014041 8 0.0 0.0 0.00 0.00 0.00 56 1019.5
20260504013921 8 0.0 0.0 0.00 0.00 0.00 56 1019.5
20260504013821 8 0.0 0.0 0.00 0.00 0.00 56 1019.5
20260504013741 8 0.0 0.0 0.00 0.00 0.00 54 1019.5
20260504013621 8 0.0 0.0 0.00 0.00 0.00 53 1019.5
20260504013521 8 0.0 0.0 0.00 0.00 0.00 54 1019.5
20260504013420 8 0.0 0.0 0.00 0.00 0.00 55 1019.5
20260504013322 8 0.0 0.0 0.00 0.00 0.00 55 1019.5
20260504013222 8 0.0 0.0 0.00 0.00 0.00 55 1019.4
20260504013143 8 0.0 0.0 0.00 0.00 0.00 54 1019.5
20260504013023 8 0.0 0.0 0.00 0.00 0.00 55 1019.4
20260504012923 8 0.0 0.0 0.00 0.00 0.00 55 1019.5
20260504012821 8 0.0 0.0 0.00 0.00 0.00 55 1019.4
20260504012721 8 0.0 0.0 0.00 0.00 0.00 56 1019.4
20260504012640 8 0.0 0.0 0.00 0.00 0.00 56 1019.4
20260504012520 8 0.0 0.0 0.00 0.00 0.00 56 1019.3
20260504012442 8 0.0 0.0 0.00 0.00 0.00 56 1019.3
20260504012322 8 0.0 0.0 0.00 0.00 0.00 56 1019.3
20260504012223 8 0.0 0.0 0.00 0.00 0.00 55 1019.3
20260504012123 8 0.0 0.0 0.00 0.00 0.00 55 1019.2
20260504012025 8 0.0 0.0 0.00 0.00 0.00 55 1019.3
20260504011925 8 0.0 0.0 0.00 0.00 0.00 55 1019.2
20260504011723 9 0.0 0.0 0.00 0.00 0.00 55 1019.3
20260504011626 9 0.0 0.0 0.00 0.00 0.00 55 1019.3
20260504011521 9 0.0 0.0 0.00 0.00 0.00 56 1019.2
20260504011421 9 0.0 0.0 0.00 0.00 0.00 55 1019.2
20260504011323 9 0.0 0.0 0.00 0.00 0.00 55 1019.2
20260504011223 9 0.0 0.0 0.00 0.00 0.00 55 1019.2
20260504011122 9 0.0 0.0 0.00 0.00 0.00 56 1019.2
20260504011022 9 0.0 0.0 0.00 0.00 0.00 55 1019.1
20260504010922 9 0.0 0.0 0.00 0.00 0.00 54 1019.1
20260504010822 9 0.0 0.0 0.00 0.00 0.00 55 1019.0
20260504010741 9 0.0 0.0 0.00 0.00 0.00 56 1019.0
20260504010621 9 0.0 0.0 0.00 0.00 0.00 55 1019.0
20260504010520 9 0.0 0.0 0.00 0.00 0.00 55 1019.0
20260504010440 9 0.0 0.0 0.00 0.00 0.00 55 1019.0
20260504010320 9 0.0 0.0 0.00 0.00 0.00 53 1019.0
20260504010222 9 0.0 0.0 0.00 0.00 0.00 54 1018.9
20260504010122 9 0.0 0.0 0.00 0.00 0.00 51 1018.9
20260504010022 9 0.0 0.0 0.00 0.00 0.00 52 1018.9
20260504005922 9 0.0 0.0 0.00 0.00 0.00 53 1018.9
20260504005822 9 0.0 0.0 0.00 0.00 0.00 55 1018.9
20260504005722 9 0.0 0.0 0.00 0.00 0.00 54 1018.9
20260504005623 9 0.0 0.0 0.00 0.00 0.00 53 1018.8
20260504005541 9 0.0 0.0 0.00 0.00 0.00 51 1018.8
20260504005423 9 0.0 0.0 0.00 0.00 0.00 52 1018.9
20260504005341 9 0.0 0.0 0.00 0.00 0.00 53 1018.8
20260504005221 9 0.0 0.0 0.00 0.00 0.00 53 1018.8
20260504005123 9 0.0 0.0 0.00 0.00 0.00 54 1018.8
20260504005023 9 0.0 0.0 0.00 0.00 0.00 54 1018.8
20260504005002 9 0.0 0.0 0.00 0.00 0.00 53 1018.8
20260504004822 9 0.0 0.0 0.00 0.00 0.00 52 1018.8
20260504004802 9 0.0 0.0 0.00 0.00 0.00 52 1018.8
20260504004623 9 0.0 0.0 0.00 0.00 0.00 51 1018.7
20260504004522 10 0.0 0.0 0.00 0.00 0.00 52 1018.7
20260504004443 10 0.0 0.0 0.00 0.00 0.00 52 1018.7
20260504004342 10 0.0 0.0 0.00 0.00 0.00 52 1018.7
20260504004221 10 0.0 0.0 0.00 0.00 0.00 52 1018.7
20260504004123 10 0.0 0.0 0.00 0.00 0.00 52 1018.6
20260504004023 10 0.0 0.0 0.00 0.00 0.00 51 1018.6
20260504003924 10 0.0 0.0 0.00 0.00 0.00 50 1018.7
20260504003823 10 0.0 0.0 0.00 0.00 0.00 50 1018.6
20260504003722 10 0.0 0.0 0.00 0.00 0.00 52 1018.7
20260504003642 10 0.0 0.0 0.00 0.00 0.00 52 1018.6
20260504003522 10 0.0 0.0 0.00 0.00 0.00 51 1018.6
20260504003422 10 0.0 0.0 0.00 0.00 0.00 51 1018.6
20260504003323 10 0.0 0.0 0.00 0.00 0.00 52 1018.6
20260504003221 10 0.0 0.0 0.00 0.00 0.00 52 1018.6
20260504003122 10 0.0 0.0 0.00 0.00 0.00 50 1018.5
20260504003021 10 0.0 0.0 0.00 0.00 0.00 49 1018.6
20260504002926 10 0.0 0.0 0.00 0.00 0.00 48 1018.6
20260504002822 10 0.0 0.0 0.00 0.00 0.00 49 1018.6
20260504002723 10 0.0 0.0 0.00 0.00 0.00 48 1018.5
20260504002622 10 0.0 0.0 0.00 0.00 0.00 48 1018.5
20260504002541 10 0.0 0.0 0.00 0.00 0.00 48 1018.5
20260504002425 10 0.0 0.0 0.00 0.00 0.00 49 1018.5
20260504002322 10 0.0 0.0 0.00 0.00 0.00 49 1018.5
20260504002222 10 0.0 0.0 0.00 0.00 0.00 49 1018.5
20260504002121 10 0.0 0.0 0.00 0.00 0.00 49 1018.5
20260504002020 10 0.0 0.0 0.00 0.00 0.00 50 1018.5
20260504001921 10 0.0 0.0 0.00 0.00 0.00 49 1018.5
20260504001823 10 0.0 0.0 0.00 0.00 0.00 49 1018.4
20260504001723 10 0.0 0.0 0.00 0.00 0.00 48 1018.5
20260504001623 10 0.0 0.0 0.00 0.00 0.00 49 1018.4
20260504001522 10 0.0 0.0 0.00 0.00 0.00 49 1018.4
20260504001424 10 0.0 0.0 0.00 0.00 0.00 49 1018.4
20260504001322 10 0.0 0.0 0.00 0.00 0.00 49 1018.4
20260504001222 10 0.0 0.0 0.00 0.00 0.00 49 1018.4
20260504001122 10 0.0 0.0 0.00 0.00 0.00 49 1018.3
20260504001022 10 0.0 0.0 0.00 0.00 0.00 48 1018.3
20260504000942 10 0.0 0.0 0.00 0.00 0.00 47 1018.3
20260504000823 10 0.0 0.0 0.00 0.00 0.00 47 1018.2
20260504000724 10 0.0 0.0 0.00 0.00 0.00 46 1018.3
20260504000624 10 0.0 0.0 0.00 0.00 0.00 45 1018.3
20260504000523 10 0.0 0.0 0.00 0.00 0.00 45 1018.2
20260504000440 10 0.0 0.0 0.00 0.00 0.00 45 1018.2
20260504000323 10 0.0 0.0 0.00 0.00 0.00 46 1018.2
20260504000221 11 0.0 0.0 0.00 0.00 0.00 46 1018.2
20260504000123 11 0.0 0.0 0.00 0.00 0.00 45 1018.2
20260504000023 11 0.0 0.0 0.00 0.00 0.00 45 1018.1
20260503235923 11 0.0 0.0 0.00 0.00 0.00 45 1018.1
20260503235822 11 0.0 0.0 0.00 0.00 0.00 43 1018.1
20260503235722 11 0.0 0.0 0.00 0.00 0.00 44 1018.1
20260503235622 11 0.0 0.0 0.00 0.00 0.00 43 1018.1
20260503235543 11 0.0 0.0 0.00 0.00 0.00 44 1018.1
20260503235422 11 0.0 0.0 0.00 0.00 0.00 44 1018.0
20260503235322 11 0.0 0.0 0.00 0.00 0.00 43 1018.0
20260503235223 11 0.0 0.0 0.00 0.00 0.00 42 1018.0
20260503235122 11 0.0 0.0 0.00 0.00 0.00 39 1018.0
20260503235021 11 0.0 0.0 0.00 0.00 0.00 40 1018.0
20260503234942 11 0.0 0.0 0.00 0.00 0.00 40 1018.0
20260503234822 11 0.0 0.0 0.00 0.00 0.00 39 1018.0
20260503234722 11 0.0 0.0 0.00 0.00 0.00 38 1017.9
20260503234622 12 0.0 0.0 0.00 0.00 0.00 37 1017.9
20260503234522 12 0.0 0.0 0.00 0.00 0.00 39 1017.9
20260503234423 12 0.0 0.0 0.00 0.00 0.00 38 1017.9
20260503234322 12 0.0 0.0 0.00 0.00 0.00 38 1017.9
20260503234222 12 0.0 0.0 0.00 0.00 0.00 36 1017.9
20260503234122 12 0.0 0.0 0.00 0.00 0.00 35 1017.9
20260503234023 12 0.0 0.0 0.00 0.00 0.00 36 1017.9
20260503233922 12 0.0 0.0 0.00 0.00 0.00 36 1017.9
20260503233822 12 0.0 0.0 0.00 0.00 0.00 35 1017.8
20260503233724 12 0.0 0.0 0.00 0.00 0.00 36 1017.8
20260503233624 12 0.0 0.0 0.00 0.00 0.00 36 1017.8
20260503233524 12 0.0 0.0 0.00 0.00 0.00 36 1017.9
20260503233425 12 0.0 0.0 0.00 0.00 0.00 35 1017.8
20260503233342 12 0.0 0.0 0.00 0.00 0.00 35 1017.9
20260503233223 12 0.0 1.6 0.00 0.00 0.00 34 1017.8
20260503233122 12 270 3.2 4.8 0.00 0.00 0.00 33 1017.8
20260503233022 12 270 1.6 3.2 0.00 0.00 0.00 34 1017.8
20260503232924 12 270 1.6 1.6 0.00 0.00 0.00 34 1017.8
20260503232822 12 270 1.6 1.6 0.00 0.00 0.00 35 1017.8
20260503232743 12 0.0 1.6 0.00 0.00 0.00 34 1017.8
20260503232622 12 270 1.6 1.6 0.00 0.00 0.00 34 1017.8
20260503232522 13 270 1.6 3.2 0.00 0.00 0.00 34 1017.8
20260503232422 13 270 1.6 1.6 0.00 0.00 0.00 33 1017.7
20260503232322 13 0.0 3.2 0.00 0.00 0.00 33 1017.7
20260503232222 13 0.0 1.6 0.00 0.00 0.00 33 1017.8
20260503232122 13 293 3.2 6.4 0.00 0.00 0.00 32 1017.7
20260503232022 13 293 3.2 6.4 0.00 0.00 0.00 33 1017.7
20260503231942 13 293 1.6 3.2 0.00 0.00 0.00 33 1017.7
20260503231824 13 0.0 0.0 0.00 0.00 0.00 33 1017.7
20260503231723 13 293 1.6 1.6 0.00 0.00 0.00 33 1017.7
20260503231622 13 293 3.2 6.4 0.00 0.00 0.00 32 1017.7
20260503231522 13 293 4.8 8.0 0.00 0.00 0.00 32 1017.7
20260503231422 13 270 8.0 12.9 0.00 0.00 0.00 32 1017.6
20260503231322 13 293 8.0 12.9 0.00 0.00 0.00 31 1017.7
20260503231222 13 315 6.4 8.0 0.00 0.00 0.00 32 1017.6
20260503231203 13 270 3.2 6.4 0.00 0.00 0.00 32 1017.6
20260503231042 13 270 3.2 6.4 0.00 0.00 0.00 33 1017.7
20260503230923 13 315 6.4 8.0 0.00 0.00 0.00 32 1017.7
20260503230822 13 315 4.8 8.0 0.00 0.00 0.00 32 1017.7
20260503230722 13 338 4.8 8.0 0.00 0.00 0.00 32 1017.7
20260503230622 13 338 8.0 12.9 0.00 0.00 0.00 31 1017.6
20260503230522 13 0 3.2 6.4 0.00 0.00 0.00 32 1017.7
20260503230442 13 338 3.2 4.8 0.00 0.00 0.00 32 1017.6
20260503230322 13 293 4.8 6.4 0.00 0.00 0.00 31 1017.6
20260503230222 13 293 4.8 8.0 0.00 0.00 0.00 31 1017.6
20260503230122 13 315 4.8 6.4 0.00 0.00 0.00 31 1017.6
20260503230023 13 315 6.4 11.3 0.00 0.00 0.00 31 1017.6
20260503225922 13 293 4.8 6.4 0.00 0.00 0.00 32 1017.6
20260503225822 13 293 1.6 4.8 0.00 0.00 0.00 32 1017.6
20260503225722 13 315 1.6 4.8 0.00 0.00 0.00 31 1017.6
20260503225622 13 270 9.7 12.9 0.00 0.00 0.00 31 1017.5
20260503225522 13 338 9.7 12.9 0.00 0.00 0.00 30 1017.6
20260503225422 13 315 8.0 12.9 0.00 0.00 0.00 30 1017.5
20260503225322 13 293 9.7 14.5 0.00 0.00 0.00 31 1017.6
20260503225242 13 270 11.3 17.7 0.00 0.00 0.00 31 1017.6
20260503225124 13 338 4.8 8.0 0.00 0.00 0.00 32 1017.6
20260503225022 13 315 6.4 11.3 0.00 0.00 0.00 31 1017.5
20260503224923 13 293 4.8 6.4 0.00 0.00 0.00 31 1017.6
20260503224844 13 0 4.8 8.0 0.00 0.00 0.00 31 1017.6
20260503224722 13 0 3.2 6.4 0.00 0.00 0.00 31 1017.6
20260503224622 13 315 6.4 9.7 0.00 0.00 0.00 31 1017.5
20260503224522 14 315 8.0 14.5 0.00 0.00 0.00 31 1017.5
20260503224422 14 293 8.0 12.9 0.00 0.00 0.00 30 1017.5
20260503224344 14 293 6.4 11.3 0.00 0.00 0.00 30 1017.5
20260503224222 14 270 6.4 12.9 0.00 0.00 0.00 31 1017.5
20260503224124 14 315 4.8 9.7 0.00 0.00 0.00 31 1017.5
20260503224024 14 315 1.6 4.8 0.00 0.00 0.00 32 1017.5
20260503223922 14 315 3.2 6.4 0.00 0.00 0.00 32 1017.5
20260503223842 14 315 4.8 8.0 0.00 0.00 0.00 31 1017.5
20260503223722 14 293 6.4 8.0 0.00 0.00 0.00 31 1017.5
20260503223622 13 293 6.4 12.9 0.00 0.00 0.00 31 1017.5
20260503223522 13 270 4.8 9.7 0.00 0.00 0.00 32 1017.4
20260503223443 13 270 3.2 4.8 0.00 0.00 0.00 31 1017.5
20260503223322 13 315 4.8 8.0 0.00 0.00 0.00 31 1017.4
20260503223222 13 315 8.0 12.9 0.00 0.00 0.00 32 1017.5
20260503223123 13 293 8.0 12.9 0.00 0.00 0.00 31 1017.5
20260503223022 13 338 4.8 6.4 0.00 0.00 0.00 33 1017.5
20260503222922 13 293 6.4 14.5 0.00 0.00 0.00 32 1017.5
20260503222822 13 315 4.8 9.7 0.00 0.00 0.00 33 1017.5
20260503222722 13 338 3.2 9.7 0.00 0.00 0.00 33 1017.4
20260503222622 13 270 6.4 9.7 0.00 0.00 0.00 34 1017.4
20260503222522 13 315 3.2 11.3 0.00 0.00 0.00 33 1017.4
20260503222422 13 315 3.2 4.8 0.00 0.00 0.00 33 1017.4
20260503222322 13 293 3.2 4.8 0.00 0.00 0.00 33 1017.4
20260503222221 13 293 9.7 12.9 0.00 0.00 0.00 32 1017.5
20260503222122 13 270 4.8 9.7 0.00 0.00 0.00 33 1017.4
20260503222043 13 270 4.8 6.4 0.00 0.00 0.00 32 1017.3
20260503221922 13 293 6.4 11.3 0.00 0.00 0.00 32 1017.4
20260503221822 13 315 6.4 11.3 0.00 0.00 0.00 32 1017.4
20260503221722 13 315 8.0 14.5 0.00 0.00 0.00 33 1017.4
20260503221622 13 293 12.9 17.7 0.00 0.00 0.00 32 1017.4
20260503221522 13 270 9.7 16.1 0.00 0.00 0.00 32 1017.3
20260503221422 13 293 6.4 11.3 0.00 0.00 0.00 33 1017.3
20260503221322 13 293 6.4 8.0 0.00 0.00 0.00 33 1017.3
20260503221222 13 315 9.7 14.5 0.00 0.00 0.00 32 1017.2
20260503221122 13 0 12.9 24.1 0.00 0.00 0.00 32 1017.3
20260503221022 13 0 12.9 19.3 0.00 0.00 0.00 31 1017.4
20260503220922 13 270 12.9 19.3 0.00 0.00 0.00 32 1017.3
20260503220842 13 315 14.5 22.5 0.00 0.00 0.00 33 1017.3
20260503220722 13 203 9.7 22.5 0.00 0.00 0.00 33 1017.3
20260503220622 13 270 4.8 9.7 0.00 0.00 0.00 33 1017.3
20260503220603 13 293 9.7 16.1 0.00 0.00 0.00 33 1017.3
20260503220422 13 23 4.8 11.3 0.00 0.00 0.00 34 1017.3
20260503220322 13 0 6.4 8.0 0.00 0.00 0.00 33 1017.4
20260503220222 13 0 9.7 14.5 0.00 0.00 0.00 32 1017.4
20260503220142 13 315 8.0 14.5 0.00 0.00 0.00 33 1017.3
20260503220022 13 293 11.3 14.5 0.00 0.00 0.00 33 1017.4
20260503215922 13 293 9.7 14.5 0.00 0.00 0.00 32 1017.4
20260503215822 13 293 11.3 16.1 0.00 0.00 0.00 33 1017.4
20260503215743 13 270 8.0 17.7 0.00 0.00 0.00 33 1017.5
20260503215622 13 293 8.0 16.1 0.00 0.00 0.00 34 1017.4
20260503215522 13 315 8.0 12.9 0.00 0.00 0.00 33 1017.5
20260503215423 13 315 9.7 20.9 0.00 0.00 0.00 34 1017.5
20260503215323 13 293 8.0 17.7 0.00 0.00 0.00 34 1017.4
20260503215223 13 338 8.0 12.9 0.00 0.00 0.00 35 1017.4
20260503215125 13 315 8.0 9.7 0.00 0.00 0.00 35 1017.4
20260503215025 13 23 8.0 12.9 0.00 0.00 0.00 34 1017.4
20260503214922 13 338 4.8 6.4 0.00 0.00 0.00 34 1017.5
20260503214824 13 23 4.8 12.9 0.00 0.00 0.00 34 1017.5
20260503214723 13 293 6.4 11.3 0.00 0.00 0.00 35 1017.5
20260503214622 13 293 8.0 12.9 0.00 0.00 0.00 37 1017.5
20260503214524 13 338 4.8 9.7 0.00 0.00 0.00 34 1017.4
20260503214422 13 0 6.4 9.7 0.00 0.00 0.00 35 1017.4
20260503214322 13 270 4.8 8.0 0.00 0.00 0.00 34 1017.4
20260503214222 13 293 4.8 6.4 0.00 0.00 0.00 37 1017.4
20260503214122 13 270 3.2 6.4 0.00 0.00 0.00 35 1017.4
20260503214102 13 0 8.0 14.5 0.00 0.00 0.00 34 1017.4
20260503213922 13 293 6.4 11.3 0.00 0.00 0.00 34 1017.4
20260503213822 13 338 9.7 16.1 0.00 0.00 0.00 35 1017.4
20260503213722 13 338 11.3 14.5 0.00 0.00 0.00 34 1017.3
20260503213622 13 293 12.9 17.7 0.00 0.00 0.00 35 1017.3
20260503213522 13 0 6.4 11.3 0.00 0.00 0.00 35 1017.3
20260503213422 13 45 8.0 12.9 0.00 0.00 0.00 35 1017.3
20260503213322 13 315 6.4 8.0 0.00 0.00 0.00 36 1017.3
20260503213222 13 315 8.0 11.3 0.00 0.00 0.00 34 1017.2
20260503213122 13 293 6.4 8.0 0.00 0.00 0.00 34 1017.3
20260503213022 13 338 8.0 12.9 0.00 0.00 0.00 34 1017.3
20260503212943 13 315 12.9 19.3 0.00 0.00 0.00 34 1017.3
20260503212822 13 293 12.9 19.3 0.00 0.00 0.00 34 1017.3
20260503212722 13 315 4.8 8.0 0.00 0.00 0.00 36 1017.3
20260503212623 13 315 11.3 16.1 0.00 0.00 0.00 34 1017.3
20260503212522 13 315 11.3 17.7 0.00 0.00 0.00 34 1017.3
20260503212423 13 293 16.1 25.7 0.00 0.00 0.00 35 1017.3
20260503212322 13 0 11.3 20.9 0.00 0.00 0.00 35 1017.3
20260503212222 13 338 11.3 17.7 0.00 0.00 0.00 35 1017.3
20260503212122 13 338 14.5 20.9 0.00 0.00 0.00 34 1017.3
20260503212042 13 338 12.9 20.9 0.00 0.00 0.00 34 1017.3
20260503211924 13 45 8.0 20.9 0.00 0.00 0.00 36 1017.4
20260503211822 13 270 6.4 14.5 0.00 0.00 0.00 35 1017.4
20260503211722 13 315 8.0 14.5 0.00 0.00 0.00 35 1017.4
20260503211621 13 338 11.3 16.1 0.00 0.00 0.00 34 1017.5
20260503211521 13 293 11.3 20.9 0.00 0.00 0.00 34 1017.4
20260503211422 13 23 8.0 17.7 0.00 0.00 0.00 34 1017.4
20260503211322 13 0 16.1 25.7 0.00 0.00 0.00 34 1017.4
20260503211221 13 0 16.1 25.7 0.00 0.00 0.00 34 1017.4
20260503211122 13 315 11.3 22.5 0.00 0.00 0.00 35 1017.4
20260503211022 13 0 11.3 19.3 0.00 0.00 0.00 34 1017.4
20260503210942 13 338 16.1 25.7 0.00 0.00 0.00 35 1017.3
20260503210822 13 0 16.1 29.0 0.00 0.00 0.00 35 1017.4
20260503210722 13 315 12.9 22.5 0.00 0.00 0.00 35 1017.4
20260503210622 13 315 12.9 19.3 0.00 0.00 0.00 35 1017.4
20260503210522 13 293 8.0 14.5 0.00 0.00 0.00 36 1017.4
20260503210421 13 270 4.8 8.0 0.00 0.00 0.00 37 1017.4
20260503210321 13 270 6.4 14.5 0.00 0.00 0.00 35 1017.4
20260503210222 13 203 1.6 6.4 0.00 0.00 0.00 37 1017.4
20260503210122 13 293 6.4 12.9 0.00 0.00 0.00 36 1017.3
20260503210023 13 293 8.0 12.9 0.00 0.00 0.00 35 1017.4
20260503205942 13 270 6.4 9.7 0.00 0.00 0.00 36 1017.4
20260503205822 13 315 8.0 9.7 0.00 0.00 0.00 37 1017.4
20260503205722 13 270 9.7 17.7 0.00 0.00 0.00 35 1017.4
20260503205623 13 338 20.9 32.2 0.00 0.00 0.00 34 1017.4
20260503205523 13 293 16.1 24.1 0.00 0.00 0.00 36 1017.5
20260503205425 13 293 14.5 22.5 0.00 0.00 0.00 35 1017.2
20260503205342 13 315 9.7 16.1 0.00 0.00 0.00 37 1017.4
20260503205224 13 270 16.1 29.0 0.00 0.00 0.00 34 1017.4
20260503205122 13 248 8.0 20.9 0.00 0.00 0.00 37 1017.4
20260503205021 13 315 11.3 19.3 0.00 0.00 0.00 37 1017.4
20260503204921 13 338 19.3 29.0 0.00 0.00 0.00 35 1017.4
20260503204821 13 270 16.1 30.6 0.00 0.00 0.00 38 1017.4
20260503204722 13 0 19.3 32.2 0.00 0.00 0.00 34 1017.4
20260503204622 13 270 17.7 27.4 0.00 0.00 0.00 35 1017.4
20260503204521 13 315 9.7 12.9 0.00 0.00 0.00 37 1017.3
20260503204421 13 338 11.3 17.7 0.00 0.00 0.00 35 1017.4
20260503204342 13 315 9.7 20.9 0.00 0.00 0.00 36 1017.3
20260503204222 13 293 14.5 24.1 0.00 0.00 0.00 35 1017.3
20260503204122 13 315 16.1 22.5 0.00 0.00 0.00 36 1017.4
20260503204022 13 315 17.7 25.7 0.00 0.00 0.00 34 1017.2
20260503203923 13 270 11.3 19.3 0.00 0.00 0.00 35 1017.3
20260503203822 13 338 16.1 20.9 0.00 0.00 0.00 35 1017.3
20260503203722 13 338 9.7 22.5 0.00 0.00 0.00 37 1017.3
20260503203642 13 315 16.1 33.8 0.00 0.00 0.00 35 1017.3
20260503203522 13 293 11.3 17.7 0.00 0.00 0.00 36 1017.4
20260503203422 13 293 12.9 24.1 0.00 0.00 0.00 36 1017.3
20260503203325 13 338 8.0 12.9 0.00 0.00 0.00 36 1017.2
20260503203221 13 315 12.9 24.1 0.00 0.00 0.00 37 1017.2
20260503203121 13 338 12.9 17.7 0.00 0.00 0.00 35 1017.2
20260503203022 13 338 16.1 25.7 0.00 0.00 0.00 36 1017.4
20260503202922 13 270 12.9 22.5 0.00 0.00 0.00 36 1017.2
20260503202822 13 338 14.5 25.7 0.00 0.00 0.00 37 1017.2
20260503202742 13 0 16.1 19.3 0.00 0.00 0.00 36 1017.3
20260503202622 13 293 14.5 20.9 0.00 0.00 0.00 37 1017.3
20260503202523 13 315 17.7 24.1 0.00 0.00 0.00 34 1017.3
20260503202421 13 338 16.1 27.4 0.00 0.00 0.00 37 1017.4
20260503202321 13 315 11.3 19.3 0.00 0.00 0.00 37 1017.2
20260503202222 13 315 12.9 24.1 0.00 0.00 0.00 37 1017.3
20260503202121 13 270 12.9 17.7 0.00 0.00 0.00 37 1017.4
20260503202022 13 315 9.7 17.7 0.00 0.00 0.00 39 1017.4
20260503201922 13 293 11.3 20.9 0.00 0.00 0.00 38 1017.3
20260503201822 13 338 9.7 16.1 0.00 0.00 0.00 36 1017.4
20260503201722 13 338 16.1 20.9 0.00 0.00 0.00 36 1017.3
20260503201642 13 338 9.7 24.1 0.00 0.00 0.00 38 1017.3
20260503201521 13 315 9.7 16.1 0.00 0.00 0.00 37 1017.3
20260503201422 13 315 12.9 19.3 0.00 0.00 0.00 37 1017.4
20260503201322 13 293 14.5 19.3 0.00 0.00 0.00 35 1017.4
20260503201221 13 315 9.7 14.5 0.00 0.00 0.00 38 1017.3
20260503201142 13 0 14.5 22.5 0.00 0.00 0.00 39 1017.3
20260503201022 13 315 8.0 16.1 0.00 0.00 0.00 37 1017.3
20260503200943 13 0 12.9 22.5 0.00 0.00 0.00 37 1017.3
20260503200823 13 0 11.3 19.3 0.00 0.00 0.00 38 1017.4
20260503200742 12 338 9.7 17.7 0.00 0.00 0.00 36 1017.3
20260503200623 13 270 9.7 16.1 0.00 0.00 0.00 39 1017.4
20260503200524 12 293 6.4 16.1 0.00 0.00 0.00 38 1017.4
20260503200421 12 315 9.7 17.7 0.00 0.00 0.00 39 1017.4
20260503200324 12 270 17.7 32.2 0.00 0.00 0.00 38 1017.4
20260503200222 12 0 12.9 25.7 0.00 0.00 0.00 37 1017.5
20260503200122 12 270 9.7 16.1 0.00 0.00 0.00 36 1017.5
20260503200022 12 315 8.0 16.1 0.00 0.00 0.00 38 1017.5
20260503195922 12 293 17.7 29.0 0.00 0.00 0.00 36 1017.5
20260503195822 12 248 11.3 20.9 0.00 0.00 0.00 38 1017.5
20260503195722 12 270 11.3 17.7 0.00 0.00 0.00 38 1017.5
20260503195642 12 0 12.9 16.1 0.00 0.00 0.00 36 1017.5
20260503195521 12 0 19.3 33.8 0.00 0.00 0.00 38 1017.5
20260503195421 12 338 12.9 19.3 0.00 0.00 0.00 36 1017.4
20260503195321 12 338 17.7 24.1 0.00 0.00 0.00 37 1017.5
20260503195221 12 0 11.3 16.1 0.00 0.00 0.00 38 1017.6
20260503195122 12 270 9.7 19.3 0.00 0.00 0.00 39 1017.5
20260503195022 12 315 14.5 24.1 0.00 0.00 0.00 39 1017.5
20260503194922 12 293 11.3 20.9 0.00 0.00 0.00 38 1017.5
20260503194842 12 338 11.3 16.1 0.00 0.00 0.00 38 1017.4
20260503194742 12 293 14.5 22.5 0.00 0.00 0.00 38 1017.4
20260503194622 12 293 20.9 32.2 0.00 0.00 0.00 36 1017.4
20260503194521 12 293 17.7 27.4 0.00 0.00 0.00 36 1017.4
20260503194422 12 338 16.1 24.1 0.00 0.00 0.00 37 1017.5
20260503194321 12 315 17.7 25.7 0.00 0.00 0.00 36 1017.6
20260503194222 12 270 11.3 16.1 0.00 0.00 0.00 39 1017.5
20260503194141 12 315 16.1 22.5 0.00 0.00 0.00 37 1017.5
20260503194022 12 270 17.7 22.5 0.00 0.00 0.00 37 1017.5
20260503193922 12 315 9.7 16.1 0.00 0.00 0.00 37 1017.4
20260503193842 12 315 11.3 17.7 0.00 0.00 0.00 38 1017.5
20260503193721 12 270 14.5 20.9 0.00 0.00 0.00 40 1017.4
20260503193622 12 293 14.5 27.4 0.00 0.00 0.00 37 1017.4
20260503193522 12 315 22.5 33.8 0.00 0.00 0.00 37 1017.6
20260503193421 12 0 11.3 22.5 0.00 0.00 0.00 37 1017.5
20260503193321 12 338 11.3 20.9 0.00 0.00 0.00 38 1017.4
20260503193222 12 338 9.7 16.1 0.00 0.00 0.00 38 1017.6
20260503193121 12 270 14.5 22.5 0.00 0.00 0.00 36 1017.5
20260503193021 12 315 22.5 29.0 0.00 0.00 0.00 37 1017.5
20260503192922 12 338 16.1 25.7 0.00 0.00 0.00 37 1017.5
20260503192822 12 315 19.3 29.0 0.00 0.00 0.00 36 1017.5
20260503192721 12 270 12.9 24.1 0.00 0.00 0.00 37 1017.5
20260503192622 12 270 9.7 14.5 0.00 0.00 0.00 37 1017.6
20260503192522 12 270 6.4 16.1 0.00 0.00 0.00 39 1017.5
20260503192441 12 338 14.5 29.0 0.00 0.00 0.00 40 1017.5
20260503192321 13 270 17.7 27.4 0.00 0.00 0.00 38 1017.6
20260503192222 13 293 14.5 19.3 0.00 0.00 0.00 36 1017.5
20260503192121 13 293 14.5 32.2 0.00 0.00 0.00 38 1017.5
20260503192021 13 315 12.9 25.7 0.00 0.00 0.00 36 1017.5
20260503191921 13 338 16.1 29.0 0.00 0.00 0.00 37 1017.5
20260503191821 13 293 17.7 27.4 0.00 0.00 0.00 36 1017.4
20260503191741 12 270 14.5 20.9 0.00 0.00 0.00 40 1017.5
20260503191621 12 293 9.7 19.3 0.00 0.00 0.00 36 1017.5
20260503191542 12 270 17.7 25.7 0.00 0.00 0.00 38 1017.5
20260503191422 12 270 11.3 22.5 0.00 0.00 0.00 39 1017.5
20260503191322 12 270 19.3 27.4 0.00 0.00 0.00 37 1017.5
20260503191221 12 315 20.9 30.6 0.00 0.00 0.00 36 1017.4
20260503191122 12 293 19.3 27.4 0.00 0.00 0.00 36 1017.5
20260503191024 12 270 19.3 35.4 0.00 0.00 0.00 40 1017.5
20260503190922 12 293 14.5 20.9 0.00 0.00 0.00 37 1017.4
20260503190821 12 270 16.1 25.7 0.00 0.00 0.00 37 1017.5
20260503190722 12 270 16.1 22.5 0.00 0.00 0.00 40 1017.6
20260503190623 12 248 14.5 19.3 0.00 0.00 0.00 39 1017.4
20260503190542 12 248 14.5 20.9 0.00 0.00 0.00 38 1017.5
20260503190423 12 315 16.1 29.0 0.00 0.00 0.00 37 1017.5
20260503190324 12 315 24.1 43.5 0.00 0.00 0.00 36 1017.5
20260503190222 12 293 24.1 41.8 0.00 0.00 0.00 37 1017.4
20260503190121 12 293 17.7 25.7 0.00 0.00 0.00 36 1017.4
20260503190042 12 315 19.3 30.6 0.00 0.00 0.00 36 1017.4
20260503185922 12 315 27.4 37.0 0.00 0.00 0.00 37 1017.3
20260503185822 13 338 16.1 22.5 0.00 0.00 0.00 37 1017.4
20260503185722 13 338 16.1 24.1 0.00 0.00 0.00 36 1017.4
20260503185621 13 338 8.0 12.9 0.00 0.00 0.00 40 1017.4
20260503185522 13 270 9.7 14.5 0.00 0.00 0.00 41 1017.4
20260503185442 13 338 16.1 24.1 0.00 0.00 0.00 37 1017.4
20260503185322 13 293 16.1 22.5 0.00 0.00 0.00 40 1017.4
20260503185222 13 293 9.7 16.1 0.00 0.00 0.00 38 1017.4
20260503185121 13 315 9.7 17.7 0.00 0.00 0.00 36 1017.3
20260503185021 13 248 12.9 22.5 0.00 0.00 0.00 37 1017.4
20260503184922 13 248 11.3 24.1 0.00 0.00 0.00 37 1017.4
20260503184823 13 270 17.7 24.1 0.00 0.00 0.00 36 1017.5
20260503184723 13 270 11.3 16.1 0.00 0.00 0.00 41 1017.4
20260503184622 13 293 14.5 24.1 0.00 0.00 0.00 40 1017.3
20260503184522 13 338 16.1 22.5 0.00 0.00 0.00 38 1017.4
20260503184422 13 315 17.7 29.0 0.00 0.00 0.00 37 1017.5
20260503184321 13 0 11.3 17.7 0.00 0.00 0.00 40 1017.4
20260503184302 13 315 9.7 16.1 0.00 0.00 0.00 41 1017.4
20260503184121 13 293 12.9 22.5 0.00 0.00 0.00 36 1017.4
20260503184021 13 270 19.3 29.0 0.00 0.00 0.00 38 1017.4
20260503183921 13 315 14.5 20.9 0.00 0.00 0.00 37 1017.5
20260503183821 13 338 14.5 24.1 0.00 0.00 0.00 36 1017.5
20260503183721 12 225 9.7 14.5 0.00 0.00 0.00 39 1017.4
20260503183621 12 0 14.5 20.9 0.00 0.00 0.00 37 1017.4
20260503183522 12 270 12.9 19.3 0.00 0.00 0.00 39 1017.3
20260503183442 12 315 9.7 14.5 0.00 0.00 0.00 37 1017.4
20260503183321 12 293 11.3 19.3 0.00 0.00 0.00 38 1017.4
20260503183223 12 293 9.7 14.5 0.00 0.00 0.00 38 1017.3
20260503183123 12 315 19.3 30.6 0.00 0.00 0.00 36 1017.3
20260503183023 12 225 9.7 19.3 0.00 0.00 0.00 36 1017.4
20260503182941 12 338 12.9 24.1 0.00 0.00 0.00 38 1017.4
20260503182841 12 0 8.0 22.5 0.00 0.00 0.00 39 1017.4
20260503182721 12 315 4.8 11.3 0.00 0.00 0.00 38 1017.4
20260503182621 12 315 14.5 22.5 0.00 0.00 0.00 38 1017.4
20260503182521 12 248 14.5 22.5 0.00 0.00 0.00 37 1017.4
20260503182423 12 315 8.0 12.9 0.00 0.00 0.00 38 1017.4
20260503182321 12 315 14.5 24.1 0.00 0.00 0.00 36 1017.4
20260503182224 12 0 12.9 22.5 0.00 0.00 0.00 38 1017.5
20260503182143 12 315 17.7 35.4 0.00 0.00 0.00 36 1017.4
20260503182021 12 315 12.9 17.7 0.00 0.00 0.00 36 1017.5
20260503181924 12 315 11.3 19.3 0.00 0.00 0.00 37 1017.5
20260503181821 12 338 20.9 30.6 0.00 0.00 0.00 36 1017.6
20260503181721 12 315 19.3 40.2 0.00 0.00 0.00 35 1017.5
20260503181641 12 315 19.3 32.2 0.00 0.00 0.00 41 1017.4
20260503181521 12 293 12.9 24.1 0.00 0.00 0.00 36 1017.5
20260503181442 12 315 16.1 25.7 0.00 0.00 0.00 37 1017.3
20260503181322 12 293 11.3 19.3 0.00 0.00 0.00 41 1017.4
20260503181222 12 338 11.3 16.1 0.00 0.00 0.00 39 1017.5
20260503181201 12 293 9.7 19.3 0.00 0.00 0.00 41 1017.4
20260503181042 12 315 9.7 17.7 0.00 0.00 0.00 39 1017.3
20260503180922 12 293 11.3 16.1 0.00 0.00 0.00 41 1017.4
20260503180821 12 270 6.4 11.3 0.00 0.00 0.00 40 1017.4
20260503180743 12 338 11.3 16.1 0.00 0.00 0.00 37 1017.4
20260503180722 12 158 9.7 19.3 0.00 0.00 0.00 42 1017.2
20260503180521 12 90 3.2 6.4 0.00 0.00 0.00 41 1017.3
20260503180421 12 293 4.8 9.7 0.00 0.00 0.00 39 1017.4
20260503180321 12 315 6.4 9.7 0.00 0.00 0.00 39 1017.3
20260503180222 12 270 11.3 20.9 0.00 0.00 0.00 37 1017.3
20260503180122 12 338 8.0 14.5 0.00 0.00 0.00 38 1017.4
20260503180023 12 293 9.7 16.1 0.00 0.00 0.00 40 1017.5
20260503175921 12 23 8.0 14.5 0.00 0.00 0.00 41 1017.4
20260503175841 12 23 4.8 11.3 0.00 0.00 0.00 44 1017.4
20260503175722 12 225 3.2 9.7 0.00 0.00 0.00 42 1017.3
20260503175623 11 225 9.7 16.1 0.00 0.00 0.00 43 1017.5